This is the latest recevied weather packets stored in our database for station/object IW2NIA-3. If no packets are shown the sender has not sent any weather packets the latest 10 day(s).
| Time | Temp. | Humidity | Pressure | Rain* | Wind** | Luminosity | Snow |
|---|---|---|---|---|---|---|---|
| 1777785526 | 12.78° C | 79% | 1018.4 hPa | 0 mm | - | - | - |
| 1777784622 | 11.11° C | 82% | 1018.4 hPa | 0 mm | - | - | - |
| 1777783714 | 10.56° C | 83% | 1018.5 hPa | 0 mm | - | - | - |
| 1777782812 | 10.56° C | 83% | 1018.5 hPa | 0 mm | - | - | - |
| 1777781910 | 10° C | 82% | 1018.5 hPa | 0 mm | - | - | - |
| 1777781026 | 10° C | 82% | 1018.4 hPa | 0 mm | - | - | - |
| 1777780120 | 10° C | 82% | 1018.4 hPa | 0 mm | - | - | - |
| 1777779216 | 10° C | 82% | 1018.4 hPa | 0 mm | - | - | - |
| 1777778314 | 10° C | 82% | 1018.4 hPa | 0 mm | - | - | - |
| 1777777407 | 10° C | 81% | 1018.5 hPa | 0 mm | - | - | - |
| 1777776517 | 10.56° C | 80% | 1018.5 hPa | 0 mm | - | - | - |
| 1777775614 | 10.56° C | 81% | 1018.6 hPa | 0 mm | - | - | - |
| 1777774710 | 10.56° C | 80% | 1018.7 hPa | 0 mm | - | - | - |
| 1777773824 | 10.56° C | 79% | 1018.8 hPa | 0 mm | - | - | - |
| 1777772918 | 11.11° C | 78% | 1018.8 hPa | 0 mm | - | - | - |
| 1777772027 | 11.11° C | 78% | 1018.8 hPa | 0 mm | - | - | - |
| 1777771117 | 11.11° C | 79% | 1018.8 hPa | 0 mm | - | - | - |
| 1777770213 | 11.11° C | 79% | 1019 hPa | 0 mm | - | - | - |
| 1777769310 | 11.11° C | 78% | 1019.1 hPa | 0 mm | - | - | - |
| 1777768423 | 11.67° C | 77% | 1019.3 hPa | 0 mm | - | - | - |
| 1777767517 | 11.67° C | 75% | 1019.4 hPa | 0 mm | - | - | - |
| 1777766610 | 12.22° C | 75% | 1019.6 hPa | 0 mm | - | - | - |
| 1777765724 | 12.22° C | 75% | 1019.7 hPa | 0 mm | - | - | - |
| 1777764820 | 12.22° C | 75% | 1019.8 hPa | 0 mm | - | - | - |
| 1777763915 | 12.22° C | 73% | 1019.9 hPa | 0 mm | - | - | - |
* Rain latest hour (hover to see other rain measurements)
** Current wind speed in m/s (hover to see current wind gust speed)